Regional Weather Roundup
Issued by NWS

Home | Current Version | Previous Version | Text Only | Print | Product List | Glossary On
Versions: 1 2 3 4 5 6 7 8 9 10 11 12 13 14 15 16 17 18 19 20 21 22 23 24 25 26 27 28 29 30 31 32 33 34 35 36 37 38 39 40 41 42 43 44 45 46 47 48 49 50
000
ASUS45 KCYS 172310
RWRWY

WYOMING REGIONAL WEATHER ROUNDUP
NATIONAL WEATHER SERVICE CHEYENNE WY
500 PM MDT MON MAY 17 2021

NOTE:  "FAIR" INDICATES FEW OR NO CLOUDS BELOW 12,000 FEET
WITH NO SIGNIFICANT WEATHER AND/OR OBSTRUCTIONS TO VISIBILITY.

WYZ001-180000-
...YELLOWSTONE NATIONAL PARK...

CITY           SKY/WX    TMP DP  RH WIND       PRES   REMARKS
LK YELLOWSTONE   N/A     59  35  40 E5        30.05F
W YELLOWSTONE  NOT AVBL

$$
WYZ002>013-054>058-071-098>099-180000-
...NORTHERN WYOMING...

CITY           SKY/WX    TMP DP  RH WIND       PRES   REMARKS
JACKSON        FAIR      69  32  25 W12       29.94F
CODY           FAIR      75  38  26 S10G20    29.86F
GREYBULL       FAIR      80  35  19 SW6       29.78F
WORLAND        FAIR      79  34  19 CALM      29.80F
SHERIDAN       FAIR      77  43  29 SE13      29.82F
BUFFALO        FAIR      74  40  29 S13G18    29.89F
GILLETTE       FAIR      73  39  29 SE17G25   29.89F
HULETT         FAIR      73  45  35 NE9       29.91F
NEWCASTLE      FAIR      68  34  28 SE18      29.95S

$$
WYZ014>020-022>026-101>103-180000-
...CENTRAL WYOMING...

CITY           SKY/WX    TMP DP  RH WIND       PRES   REMARKS
BIG PINEY      CLOUDY    64  33  31 CALM      29.99S
PINEDALE       FAIR      68  30  24 NW13G18   29.98F
DUBOIS         FAIR      63  32  31 CALM      29.96S
LANDER         FAIR      73  40  30 SE6       29.86F
RIVERTON       FAIR      74  34  23 E5        29.88S
CASPER         FAIR      68  44  42 E14       29.90F
DOUGLAS        FAIR      68  43  40 S15       29.93F

$$
WYZ021-027>030-104>119-180000-
...SOUTHERN WYOMING...

CITY           SKY/WX    TMP DP  RH WIND       PRES   REMARKS
EVANSTON       FAIR      60  38  43 SW14      30.05R
KEMMERER       HVY RAIN  46  36  66 NW21G29   30.05R
FORT BRIDGER   FAIR      60  33  35 SW18G29   30.05R
ROCK SPRINGS   CLOUDY    58  33  39 NW17G28   29.98R
DIXON          FAIR      61  27  27 E21       29.97S
RAWLINS        FAIR      63  35  35 MISG      29.96S
SARATOGA       FAIR      61  39  44 NE5       29.97S
LARAMIE        FAIR      56  42  59 SE18      30.00S
CHEYENNE       PTSUNNY   60  50  69 S17       29.99S
TORRINGTON     FAIR      70  49  47 SE9       29.92F
PINE BLUFFS    PTSUNNY   63  46  55 SE15      29.98S

$$



USA.gov is the U.S. government's official web portal to all federal, state and local government web resources and services.